Time,TemperatureF,DewpointF,PressureIn,WindDirection,WindDirectionDegrees,WindSpeedMPH,WindSpeedGustMPH,Humidity,HourlyPrecipIn,Conditions,Clouds,dailyrainin,SoftwareType,DateUTC
2013-02-16 00:00:00,41.2,40.9,29.97,South,188,0.0,2.0,99,0.00,RA,,0.00,WeatherDisplay:10.37,2013-02-16 05:00:00,
2013-02-16 00:05:00,41.2,40.9,29.97,South,188,0.0,0.0,99,0.00,RA,,0.00,WeatherDisplay:10.37,2013-02-16 05:05:00,
2013-02-16 00:10:00,41.2,40.9,29.97,SSW,197,0.0,0.0,99,0.00,CLR,,0.00,WeatherDisplay:10.37,2013-02-16 05:10:00,
2013-02-16 00:15:00,40.8,40.6,29.97,WSW,251,0.0,0.0,99,0.00,CLR,,0.00,WeatherDisplay:10.37,2013-02-16 05:15:00,
2013-02-16 00:20:00,40.6,40.4,29.96,SW,233,0.0,0.0,99,0.00,CLR,,0.00,WeatherDisplay:10.37,2013-02-16 05:20:00,
2013-02-16 00:25:00,40.6,40.4,29.97,SW,233,0.0,1.0,99,0.00,CLR,,0.00,WeatherDisplay:10.37,2013-02-16 05:25:00,
2013-02-16 00:30:00,40.5,40.2,29.96,SW,233,0.0,1.0,99,0.00,CLR,,0.00,WeatherDisplay:10.37,2013-02-16 05:30:00,
2013-02-16 00:35:00,40.5,40.2,29.96,SW,233,0.0,1.0,99,0.00,CLR,,0.00,WeatherDisplay:10.37,2013-02-16 05:35:00,
2013-02-16 00:40:00,40.3,40.0,29.96,SW,233,0.0,1.0,99,0.00,CLR,,0.00,WeatherDisplay:10.37,2013-02-16 05:40:00,
2013-02-16 00:45:00,40.3,40.0,29.96,SW,233,0.0,1.0,99,0.00,CLR,,0.00,WeatherDisplay:10.37,2013-02-16 05:45:00,
2013-02-16 00:50:00,40.1,39.8,29.96,SW,233,0.0,0.0,99,0.00,CLR,,0.00,WeatherDisplay:10.37,2013-02-16 05:50:00,
2013-02-16 00:55:00,40.1,39.8,29.96,WSW,246,0.0,0.0,99,0.00,CLR,,0.00,WeatherDisplay:10.37,2013-02-16 05:55:00,
2013-02-16 01:00:00,39.9,39.7,29.96,WSW,240,0.0,0.0,99,0.00,CLR,,0.00,WeatherDisplay:10.37,2013-02-16 06:00:00,
2013-02-16 01:05:00,39.9,39.7,29.96,SW,233,0.0,0.0,99,0.00,CLR,,0.00,WeatherDisplay:10.37,2013-02-16 06:05:00,
2013-02-16 01:10:00,39.9,39.7,29.96,SW,233,0.0,0.0,99,0.00,CLR,,0.00,WeatherDisplay:10.37,2013-02-16 06:10:00,
2013-02-16 01:15:00,39.6,39.3,29.95,SW,233,0.0,0.0,99,0.00,CLR,,0.00,WeatherDisplay:10.37,2013-02-16 06:15:00,
2013-02-16 01:20:00,39.6,39.3,29.95,SW,233,0.0,0.0,99,0.00,CLR,,0.00,WeatherDisplay:10.37,2013-02-16 06:20:00,
2013-02-16 01:25:00,39.6,39.3,29.95,SW,234,0.0,0.0,99,0.00,CLR,,0.00,WeatherDisplay:10.37,2013-02-16 06:25:00,
2013-02-16 01:30:00,39.6,39.3,29.95,NW,322,0.0,0.0,99,0.00,CLR,,0.00,WeatherDisplay:10.37,2013-02-16 06:30:00,
2013-02-16 01:35:00,39.6,39.3,29.94,North,1,0.0,0.0,99,0.00,CLR,,0.00,WeatherDisplay:10.37,2013-02-16 06:35:00,
2013-02-16 01:40:00,39.2,38.9,29.94,WNW,297,0.0,1.0,99,0.00,CLR,,0.00,WeatherDisplay:10.37,2013-02-16 06:40:00,
2013-02-16 01:45:00,39.2,38.9,29.94,WSW,256,0.0,1.0,99,0.00,CLR,,0.00,WeatherDisplay:10.37,2013-02-16 06:45:00,
2013-02-16 01:50:00,39.2,38.9,29.94,West,268,1.0,2.0,99,0.00,CLR,,0.00,WeatherDisplay:10.37,2013-02-16 06:50:00,
2013-02-16 01:55:00,39.2,38.9,29.94,South,189,1.0,2.0,99,0.00,CLR,,0.00,WeatherDisplay:10.37,2013-02-16 06:55:00,
2013-02-16 02:00:00,39.2,38.9,29.94,North,354,1.0,2.0,99,0.00,CLR,,0.00,WeatherDisplay:10.37,2013-02-16 07:00:00,
2013-02-16 02:05:00,39.2,38.9,29.94,North,1,1.0,2.0,99,0.00,CLR,,0.00,WeatherDisplay:10.37,2013-02-16 07:05:00,
2013-02-16 02:10:00,39.2,38.9,29.94,North,0,1.0,2.0,99,0.00,CLR,,0.00,WeatherDisplay:10.37,2013-02-16 07:10:00,
2013-02-16 02:15:00,39.2,38.9,29.93,North,0,1.0,2.0,99,0.00,CLR,,0.00,WeatherDisplay:10.37,2013-02-16 07:15:00,
2013-02-16 02:20:00,39.2,38.9,29.94,North,0,1.0,2.0,99,0.00,CLR,,0.00,WeatherDisplay:10.37,2013-02-16 07:20:00,
2013-02-16 02:25:00,39.2,38.9,29.94,North,0,1.0,2.0,99,0.00,CLR,,0.00,WeatherDisplay:10.37,2013-02-16 07:25:00,
2013-02-16 02:30:00,39.0,38.8,29.93,NNW,337,0.0,2.0,99,0.00,CLR,,0.00,WeatherDisplay:10.37,2013-02-16 07:30:00,
2013-02-16 02:35:00,39.0,38.8,29.94,SW,227,0.0,2.0,99,0.00,CLR,,0.00,WeatherDisplay:10.37,2013-02-16 07:35:00,
2013-02-16 02:40:00,39.0,38.8,29.94,SSW,197,0.0,2.0,99,0.00,CLR,,0.00,WeatherDisplay:10.37,2013-02-16 07:40:00,
2013-02-16 02:45:00,39.0,38.8,29.94,West,274,0.0,2.0,99,0.00,CLR,,0.00,WeatherDisplay:10.37,2013-02-16 07:45:00,
2013-02-16 02:50:00,39.0,38.8,29.94,North,2,0.0,2.0,99,0.00,CLR,,0.00,WeatherDisplay:10.37,2013-02-16 07:50:00,
2013-02-16 02:55:00,39.0,38.8,29.94,North,0,0.0,2.0,99,0.00,CLR,,0.00,WeatherDisplay:10.37,2013-02-16 07:55:00,
2013-02-16 03:00:00,39.2,38.9,29.93,West,274,0.0,2.0,99,0.00,CLR,,0.00,WeatherDisplay:10.37,2013-02-16 08:00:00,
2013-02-16 03:05:00,39.2,38.9,29.93,South,188,0.0,2.0,99,0.00,CLR,,0.00,WeatherDisplay:10.37,2013-02-16 08:05:00,
2013-02-16 03:10:00,39.2,38.9,29.93,SSW,192,0.0,2.0,99,0.00,CLR,,0.00,WeatherDisplay:10.37,2013-02-16 08:10:00,
2013-02-16 03:15:00,39.2,38.9,29.93,North,1,0.0,2.0,99,0.00,CLR,,0.00,WeatherDisplay:10.37,2013-02-16 08:15:00,
2013-02-16 03:20:00,39.6,39.3,29.93,North,349,0.0,2.0,99,0.00,CLR,,0.00,WeatherDisplay:10.37,2013-02-16 08:20:00,
2013-02-16 03:25:00,39.7,39.5,29.92,SSW,195,0.0,2.0,99,0.00,CLR,,0.00,WeatherDisplay:10.37,2013-02-16 08:25:00,
2013-02-16 03:30:00,39.7,39.5,29.92,South,188,0.0,1.0,99,0.00,CLR,,0.00,WeatherDisplay:10.37,2013-02-16 08:30:00,
2013-02-16 03:35:00,39.9,39.7,29.92,South,188,0.0,1.0,99,0.00,CLR,,0.00,WeatherDisplay:10.37,2013-02-16 08:35:00,
2013-02-16 03:40:00,39.9,39.7,29.92,South,188,0.0,1.0,99,0.00,CLR,,0.00,WeatherDisplay:10.37,2013-02-16 08:40:00,
2013-02-16 03:45:00,40.3,40.0,29.91,South,188,0.0,1.0,99,0.00,CLR,,0.00,WeatherDisplay:10.37,2013-02-16 08:45:00,
2013-02-16 03:50:00,40.3,40.0,29.91,South,188,0.0,0.0,99,0.00,CLR,,0.00,WeatherDisplay:10.37,2013-02-16 08:50:00,
2013-02-16 03:55:00,40.3,40.0,29.91,North,354,0.0,0.0,99,0.00,CLR,,0.00,WeatherDisplay:10.37,2013-02-16 08:55:00,
2013-02-16 04:00:00,40.3,40.0,29.90,North,1,0.0,0.0,99,0.00,CLR,,0.00,WeatherDisplay:10.37,2013-02-16 09:00:00,
2013-02-16 04:05:00,40.3,40.0,29.90,North,0,0.0,0.0,99,0.00,CLR,,0.00,WeatherDisplay:10.37,2013-02-16 09:05:00,
2013-02-16 04:10:00,40.3,40.0,29.90,North,0,0.0,0.0,99,0.00,CLR,,0.00,WeatherDisplay:10.37,2013-02-16 09:10:00,
2013-02-16 04:15:00,40.3,40.0,29.91,North,0,0.0,0.0,99,0.00,CLR,,0.00,WeatherDisplay:10.37,2013-02-16 09:15:00,
2013-02-16 04:20:00,40.3,40.0,29.91,North,0,0.0,0.0,99,0.00,CLR,,0.00,WeatherDisplay:10.37,2013-02-16 09:20:00,
2013-02-16 04:25:00,40.3,40.0,29.92,North,0,0.0,0.0,99,0.00,CLR,,0.00,WeatherDisplay:10.37,2013-02-16 09:25:00,
2013-02-16 04:30:00,40.6,40.4,29.91,NNW,348,1.0,5.0,99,0.00,CLR,,0.00,WeatherDisplay:10.37,2013-02-16 09:30:00,
2013-02-16 04:40:00,40.8,40.6,29.91,NW,323,1.0,3.0,99,0.00,CLR,,0.00,WeatherDisplay:10.37,2013-02-16 09:40:00,
2013-02-16 04:45:00,40.8,40.6,29.91,NNW,347,1.0,3.0,99,0.00,CLR,,0.00,WeatherDisplay:10.37,2013-02-16 09:45:00,
2013-02-16 04:50:00,40.8,40.6,29.90,North,4,1.0,3.0,99,0.00,CLR,,0.00,WeatherDisplay:10.37,2013-02-16 09:50:00,
2013-02-16 04:55:00,40.8,40.6,29.90,North,0,1.0,3.0,99,0.00,CLR,,0.00,WeatherDisplay:10.37,2013-02-16 09:55:00,
2013-02-16 05:00:00,40.8,40.6,29.90,North,0,1.0,3.0,99,0.00,CLR,,0.00,WeatherDisplay:10.37,2013-02-16 10:00:00,
2013-02-16 05:05:00,40.8,40.6,29.90,North,0,1.0,3.0,99,0.00,CLR,,0.00,WeatherDisplay:10.37,2013-02-16 10:05:00,
2013-02-16 05:10:00,40.4,40.1,29.90,North,359,0.0,3.0,99,0.00,CLR,,0.00,WeatherDisplay:10.37,2013-02-16 10:10:00,
2013-02-16 05:15:00,40.1,39.9,29.90,North,8,0.0,2.0,99,0.00,CLR,,0.00,WeatherDisplay:10.37,2013-02-16 10:15:00,
2013-02-16 05:20:00,40.1,39.8,29.89,North,8,0.0,0.0,99,0.00,CLR,,0.00,WeatherDisplay:10.37,2013-02-16 10:20:00,
2013-02-16 05:25:00,39.9,39.7,29.90,North,8,0.0,0.0,99,0.00,CLR,,0.00,WeatherDisplay:10.37,2013-02-16 10:25:00,
2013-02-16 05:30:00,39.7,39.5,29.89,North,8,0.0,0.0,99,0.00,CLR,,0.00,WeatherDisplay:10.37,2013-02-16 10:30:00,
2013-02-16 05:35:00,39.7,39.5,29.89,North,8,0.0,0.0,99,0.00,CLR,,0.00,WeatherDisplay:10.37,2013-02-16 10:35:00,
2013-02-16 05:40:00,39.6,39.3,29.89,North,8,0.0,0.0,99,0.00,CLR,,0.00,WeatherDisplay:10.37,2013-02-16 10:40:00,
2013-02-16 05:45:00,39.6,39.3,29.89,North,6,0.0,0.0,99,0.00,CLR,,0.00,WeatherDisplay:10.37,2013-02-16 10:45:00,
2013-02-16 05:50:00,39.1,38.9,29.89,North,4,0.0,0.0,99,0.00,CLR,,0.00,WeatherDisplay:10.37,2013-02-16 10:50:00,
2013-02-16 05:55:00,39.0,38.7,29.89,North,6,0.0,0.0,99,0.00,CLR,,0.00,WeatherDisplay:10.37,2013-02-16 10:55:00,
2013-02-16 06:00:00,38.8,38.6,29.89,North,8,0.0,0.0,99,0.00,CLR,,0.00,WeatherDisplay:10.37,2013-02-16 11:00:00,
2013-02-16 06:05:00,38.8,38.6,29.89,North,8,0.0,0.0,99,0.00,CLR,,0.00,WeatherDisplay:10.37,2013-02-16 11:05:00,
2013-02-16 06:10:00,38.8,38.6,29.89,North,8,0.0,0.0,99,0.00,CLR,,0.00,WeatherDisplay:10.37,2013-02-16 11:10:00,
2013-02-16 06:15:00,38.7,38.4,29.89,South,188,0.0,0.0,99,0.00,CLR,,0.00,WeatherDisplay:10.37,2013-02-16 11:15:00,
2013-02-16 06:20:00,38.3,38.0,29.89,South,188,0.0,0.0,99,0.00,CLR,,0.00,WeatherDisplay:10.37,2013-02-16 11:20:00,
2013-02-16 06:25:00,38.3,38.0,29.89,South,188,0.0,0.0,99,0.00,CLR,,0.00,WeatherDisplay:10.37,2013-02-16 11:25:00,
2013-02-16 06:30:00,38.1,37.9,29.88,South,188,0.0,0.0,99,0.00,CLR,,0.00,WeatherDisplay:10.37,2013-02-16 11:30:00,
2013-02-16 06:40:00,37.9,37.6,29.89,North,350,0.0,0.0,99,0.00,CLR,,0.00,WeatherDisplay:10.37,2013-02-16 11:40:00,
2013-02-16 06:45:00,37.8,37.5,29.89,SSW,195,0.0,0.0,99,0.00,CLR,,0.00,WeatherDisplay:10.37,2013-02-16 11:45:00,
2013-02-16 06:50:00,37.8,37.5,29.89,South,191,0.0,0.0,99,0.00,CLR,,0.00,WeatherDisplay:10.37,2013-02-16 11:50:00,
2013-02-16 06:55:00,37.6,37.3,29.89,SSW,194,0.0,0.0,99,0.00,CLR,,0.00,WeatherDisplay:10.37,2013-02-16 11:55:00,
2013-02-16 07:00:00,37.6,37.3,29.89,South,188,0.0,0.0,99,0.00,CLR,,0.00,WeatherDisplay:10.37,2013-02-16 12:00:00,
2013-02-16 07:05:00,37.6,37.3,29.88,North,353,0.0,0.0,99,0.00,CLR,,0.00,WeatherDisplay:10.37,2013-02-16 12:05:00,
2013-02-16 07:10:00,37.6,37.3,29.89,North,351,0.0,0.0,99,0.00,CLR,,0.00,WeatherDisplay:10.37,2013-02-16 12:10:00,
2013-02-16 07:15:00,37.6,37.3,29.88,North,349,0.0,2.0,99,0.00,CLR,,0.00,WeatherDisplay:10.37,2013-02-16 12:15:00,
2013-02-16 07:20:00,37.6,37.3,29.88,WNW,303,0.0,1.0,99,0.00,CLR,,0.00,WeatherDisplay:10.37,2013-02-16 12:20:00,
2013-02-16 07:25:00,37.8,37.5,29.88,West,278,0.0,1.0,99,0.00,CLR,,0.00,WeatherDisplay:10.37,2013-02-16 12:25:00,
2013-02-16 07:30:00,37.8,37.5,29.88,East,98,0.0,1.0,99,0.00,CLR,,0.00,WeatherDisplay:10.37,2013-02-16 12:30:00,
2013-02-16 07:35:00,37.8,37.5,29.88,East,98,0.0,1.0,99,0.00,CLR,,0.00,WeatherDisplay:10.37,2013-02-16 12:35:00,
2013-02-16 07:40:00,38.1,37.9,29.88,East,87,0.0,1.0,99,0.00,CLR,,0.00,WeatherDisplay:10.37,2013-02-16 12:40:00,
2013-02-16 07:45:00,38.1,37.9,29.88,SE,137,0.0,1.0,99,0.00,CLR,,0.00,WeatherDisplay:10.37,2013-02-16 12:45:00,
2013-02-16 07:50:00,38.4,38.1,29.88,ESE,118,0.0,2.0,99,0.00,CLR,,0.00,WeatherDisplay:10.37,2013-02-16 12:50:00,
2013-02-16 07:55:00,38.8,38.6,29.88,NE,34,0.0,2.0,99,0.00,CLR,,0.00,WeatherDisplay:10.37,2013-02-16 12:55:00,
2013-02-16 08:00:00,39.4,39.1,29.88,NNE,15,1.0,2.0,99,0.00,CLR,,0.00,WeatherDisplay:10.37,2013-02-16 13:00:00,
2013-02-16 08:05:00,40.6,40.3,29.87,NE,50,0.0,2.0,99,0.00,CLR,,0.00,WeatherDisplay:10.37,2013-02-16 13:05:00,
2013-02-16 08:10:00,41.7,41.5,29.88,NNE,33,0.0,2.0,99,0.00,CLR,,0.00,WeatherDisplay:10.37,2013-02-16 13:10:00,
2013-02-16 08:15:00,42.6,42.4,29.88,NNE,22,1.0,4.0,99,0.00,CLR,,0.00,WeatherDisplay:10.37,2013-02-16 13:15:00,
2013-02-16 08:20:00,43.2,42.9,29.88,North,350,1.0,3.0,99,0.00,CLR,,0.00,WeatherDisplay:10.37,2013-02-16 13:20:00,
2013-02-16 08:25:00,44.0,43.7,29.88,NNW,344,1.0,3.0,99,0.00,CLR,,0.00,WeatherDisplay:10.37,2013-02-16 13:25:00,
2013-02-16 08:30:00,44.4,44.2,29.88,NNW,330,1.0,4.0,99,0.00,CLR,,0.00,WeatherDisplay:10.37,2013-02-16 13:30:00,
2013-02-16 08:35:00,44.8,44.5,29.87,NNW,347,1.0,3.0,99,0.00,CLR,,0.00,WeatherDisplay:10.37,2013-02-16 13:35:00,
2013-02-16 08:40:00,45.1,44.9,29.88,NE,41,1.0,3.0,99,0.00,CLR,,0.00,WeatherDisplay:10.37,2013-02-16 13:40:00,
2013-02-16 08:45:00,45.5,45.2,29.88,North,5,2.0,5.0,99,0.00,CLR,,0.00,WeatherDisplay:10.37,2013-02-16 13:45:00,
2013-02-16 08:50:00,45.9,45.6,29.88,NNW,342,2.0,4.0,99,0.00,CLR,,0.00,WeatherDisplay:10.37,2013-02-16 13:50:00,
2013-02-16 08:55:00,46.6,46.3,29.88,North,349,1.0,6.0,99,0.00,CLR,,0.00,WeatherDisplay:10.37,2013-02-16 13:55:00,
2013-02-16 09:00:00,46.9,46.6,29.87,North,356,1.0,5.0,99,0.00,CLR,,0.00,WeatherDisplay:10.37,2013-02-16 14:00:00,
2013-02-16 09:05:00,47.6,47.3,29.87,NNW,338,2.0,8.0,99,0.00,CLR,,0.00,WeatherDisplay:10.37,2013-02-16 14:05:00,
2013-02-16 09:10:00,48.2,47.9,29.87,NNW,347,2.0,6.0,99,0.00,CLR,,0.00,WeatherDisplay:10.37,2013-02-16 14:10:00,
2013-02-16 09:15:00,48.4,48.1,29.87,North,349,3.0,6.0,99,0.00,CLR,,0.00,WeatherDisplay:10.37,2013-02-16 14:15:00,
2013-02-16 09:20:00,48.7,48.2,29.88,NW,321,2.0,6.0,98,0.00,CLR,,0.00,WeatherDisplay:10.37,2013-02-16 14:20:00,
2013-02-16 09:25:00,49.6,48.5,29.87,NNW,332,3.0,7.0,96,0.00,CLR,,0.00,WeatherDisplay:10.37,2013-02-16 14:25:00,
2013-02-16 09:30:00,50.1,48.7,29.87,North,10,1.0,7.0,95,0.00,CLR,,0.00,WeatherDisplay:10.37,2013-02-16 14:30:00,
2013-02-16 09:35:00,50.8,48.8,29.88,North,351,2.0,6.0,93,0.00,CLR,,0.00,WeatherDisplay:10.37,2013-02-16 14:35:00,
2013-02-16 09:40:00,51.3,47.5,29.87,NNW,339,3.0,7.0,87,0.00,CLR,,0.00,WeatherDisplay:10.37,2013-02-16 14:40:00,
2013-02-16 09:45:00,51.2,47.4,29.87,North,352,1.0,6.0,87,0.00,CLR,,0.00,WeatherDisplay:10.37,2013-02-16 14:45:00,
2013-02-16 09:50:00,51.4,47.7,29.88,North,9,1.0,6.0,87,0.00,CLR,,0.00,WeatherDisplay:10.37,2013-02-16 14:50:00,
2013-02-16 09:55:00,51.4,47.7,29.88,ENE,61,1.0,3.0,87,0.00,CLR,,0.00,WeatherDisplay:10.37,2013-02-16 14:55:00,
2013-02-16 10:00:00,52.5,47.8,29.87,ENE,64,2.0,7.0,84,0.00,CLR,,0.00,WeatherDisplay:10.37,2013-02-16 15:00:00,
2013-02-16 10:05:00,53.2,48.2,29.87,NE,52,2.0,7.0,83,0.00,CLR,,0.00,WeatherDisplay:10.37,2013-02-16 15:05:00,
2013-02-16 10:10:00,53.0,46.3,29.87,NE,44,1.0,6.0,78,0.00,CLR,,0.00,WeatherDisplay:10.37,2013-02-16 15:10:00,
2013-02-16 10:15:00,53.0,47.0,29.87,NNE,17,1.0,5.0,80,0.00,CLR,,0.00,WeatherDisplay:10.37,2013-02-16 15:15:00,
2013-02-16 10:20:00,53.2,47.6,29.87,North,353,1.0,4.0,81,0.00,CLR,,0.00,WeatherDisplay:10.37,2013-02-16 15:20:00,
2013-02-16 10:25:00,53.3,47.0,29.87,North,360,2.0,5.0,79,0.00,CLR,,0.00,WeatherDisplay:10.37,2013-02-16 15:25:00,
2013-02-16 10:30:00,53.5,46.5,29.87,North,358,1.0,6.0,77,0.00,CLR,,0.00,WeatherDisplay:10.37,2013-02-16 15:30:00,
2013-02-16 10:35:00,53.4,46.0,29.87,North,350,2.0,6.0,76,0.00,CLR,,0.00,WeatherDisplay:10.37,2013-02-16 15:35:00,
2013-02-16 10:40:00,52.8,45.1,29.87,North,351,3.0,6.0,75,0.00,CLR,,0.00,WeatherDisplay:10.37,2013-02-16 15:40:00,
2013-02-16 10:45:00,52.3,45.0,29.87,NNW,337,1.0,6.0,76,0.00,CLR,,0.00,WeatherDisplay:10.37,2013-02-16 15:45:00,
2013-02-16 10:50:00,52.3,45.7,29.87,NNW,342,1.0,6.0,78,0.00,CLR,,0.00,WeatherDisplay:10.37,2013-02-16 15:50:00,
2013-02-16 10:55:00,53.4,46.0,29.86,NNW,340,2.0,6.0,76,0.00,CLR,,0.00,WeatherDisplay:10.37,2013-02-16 15:55:00,
2013-02-16 11:00:00,53.6,45.9,29.86,NNW,327,1.0,3.0,75,0.00,CLR,,0.00,WeatherDisplay:10.37,2013-02-16 16:00:00,
2013-02-16 11:05:00,54.0,45.9,29.86,NNW,347,2.0,6.0,74,0.00,CLR,,0.00,WeatherDisplay:10.37,2013-02-16 16:05:00,
2013-02-16 11:10:00,54.5,45.7,29.85,North,353,2.0,6.0,72,0.00,CLR,,0.00,WeatherDisplay:10.37,2013-02-16 16:10:00,
2013-02-16 11:15:00,54.3,45.1,29.85,NNW,331,3.0,6.0,71,0.00,CLR,,0.00,WeatherDisplay:10.37,2013-02-16 16:15:00,
2013-02-16 11:20:00,54.1,44.9,29.85,NW,323,3.0,6.0,71,0.00,CLR,,0.00,WeatherDisplay:10.37,2013-02-16 16:20:00,
2013-02-16 11:25:00,54.5,45.3,29.85,NW,326,1.0,6.0,71,0.00,CLR,,0.00,WeatherDisplay:10.37,2013-02-16 16:25:00,
2013-02-16 11:30:00,54.5,45.3,29.84,NNW,327,1.0,5.0,71,0.00,CLR,,0.00,WeatherDisplay:10.37,2013-02-16 16:30:00,
2013-02-16 11:35:00,54.5,45.3,29.84,NNW,341,1.0,5.0,71,0.00,CLR,,0.00,WeatherDisplay:10.37,2013-02-16 16:35:00,
2013-02-16 11:40:00,54.5,45.3,29.84,North,0,1.0,5.0,71,0.00,CLR,,0.00,WeatherDisplay:10.37,2013-02-16 16:40:00,
2013-02-16 11:45:00,54.5,44.9,29.84,NNW,344,1.0,5.0,70,0.00,CLR,,0.00,WeatherDisplay:10.37,2013-02-16 16:45:00,
2013-02-16 11:50:00,54.7,44.7,29.83,NNW,345,2.0,5.0,69,0.00,CLR,,0.00,WeatherDisplay:10.37,2013-02-16 16:50:00,
2013-02-16 11:55:00,54.5,44.5,29.83,North,1,2.0,5.0,69,0.00,CLR,,0.00,WeatherDisplay:10.37,2013-02-16 16:55:00,
2013-02-16 12:00:00,54.3,45.1,29.83,NNW,344,1.0,2.0,71,0.00,CLR,,0.00,WeatherDisplay:10.37,2013-02-16 17:00:00,
2013-02-16 12:05:00,54.3,44.4,29.83,NW,317,2.0,6.0,69,0.00,CLR,,0.00,WeatherDisplay:10.37,2013-02-16 17:05:00,
2013-02-16 12:10:00,54.3,44.4,29.83,NW,318,2.0,4.0,69,0.00,CLR,,0.00,WeatherDisplay:10.37,2013-02-16 17:10:00,
2013-02-16 12:15:00,54.3,44.7,29.83,North,357,3.0,7.0,70,0.00,CLR,,0.00,WeatherDisplay:10.37,2013-02-16 17:15:00,
2013-02-16 12:20:00,54.3,44.0,29.83,NNE,13,6.0,8.0,68,0.00,CLR,,0.00,WeatherDisplay:10.37,2013-02-16 17:20:00,
2013-02-16 12:25:00,53.8,43.5,29.83,North,356,2.0,8.0,68,0.00,CLR,,0.00,WeatherDisplay:10.37,2013-02-16 17:25:00,
2013-02-16 12:30:00,53.6,44.0,29.83,NNW,335,1.0,4.0,70,0.00,CLR,,0.00,WeatherDisplay:10.37,2013-02-16 17:30:00,
2013-02-16 12:35:00,53.2,44.1,29.83,NW,315,2.0,5.0,71,0.00,CLR,,0.00,WeatherDisplay:10.37,2013-02-16 17:35:00,
2013-02-16 12:40:00,52.9,43.7,29.83,NW,323,2.0,6.0,71,0.00,CLR,,0.00,WeatherDisplay:10.37,2013-02-16 17:40:00,
2013-02-16 12:45:00,52.5,43.8,29.83,NNW,337,1.0,6.0,72,0.00,CLR,,0.00,WeatherDisplay:10.37,2013-02-16 17:45:00,
2013-02-16 12:50:00,52.3,43.9,29.82,NNW,327,2.0,4.0,73,0.00,CLR,,0.00,WeatherDisplay:10.37,2013-02-16 17:50:00,
2013-02-16 12:55:00,52.0,43.2,29.82,NNW,342,2.0,6.0,72,0.00,CLR,,0.00,WeatherDisplay:10.37,2013-02-16 17:55:00,
2013-02-16 13:00:00,52.0,43.2,29.81,NNW,344,3.0,6.0,72,0.00,CLR,,0.00,WeatherDisplay:10.37,2013-02-16 18:00:00,
2013-02-16 13:05:00,52.0,42.9,29.81,NNW,336,1.0,8.0,71,0.00,CLR,,0.00,WeatherDisplay:10.37,2013-02-16 18:05:00,
2013-02-16 13:10:00,52.0,42.9,29.81,NNW,327,1.0,3.0,71,0.00,CLR,,0.00,WeatherDisplay:10.37,2013-02-16 18:10:00,
2013-02-16 13:15:00,51.5,42.7,29.80,North,355,5.0,8.0,72,0.00,CLR,,0.00,WeatherDisplay:10.37,2013-02-16 18:15:00,
2013-02-16 13:20:00,50.7,43.4,29.81,NNW,338,1.0,6.0,76,0.00,CLR,,0.00,WeatherDisplay:10.37,2013-02-16 18:20:00,
2013-02-16 13:25:00,49.6,43.0,29.82,NNW,327,2.0,6.0,78,0.00,CLR,,0.00,WeatherDisplay:10.37,2013-02-16 18:25:00,
2013-02-16 13:30:00,49.5,43.2,29.82,NW,325,3.0,6.0,79,0.00,CLR,,0.00,WeatherDisplay:10.37,2013-02-16 18:30:00,
2013-02-16 13:35:00,47.8,41.9,29.82,NNW,327,2.0,9.0,80,0.00,CLR,,0.00,WeatherDisplay:10.37,2013-02-16 18:35:00,
2013-02-16 13:40:00,46.9,41.4,29.82,NNW,336,3.0,6.0,81,0.00,CLR,,0.00,WeatherDisplay:10.37,2013-02-16 18:40:00,
2013-02-16 13:45:00,46.8,41.2,29.83,NNW,330,1.0,5.0,81,0.00,CLR,,0.00,WeatherDisplay:10.37,2013-02-16 18:45:00,
2013-02-16 13:50:00,46.2,41.3,29.83,NW,323,2.0,5.0,83,0.00,CLR,,0.00,WeatherDisplay:10.37,2013-02-16 18:50:00,
2013-02-16 13:55:00,45.8,40.9,29.82,NW,323,3.0,6.0,83,0.00,CLR,,0.00,WeatherDisplay:10.37,2013-02-16 18:55:00,
2013-02-16 14:00:00,45.0,41.9,29.82,West,274,1.0,10.0,89,0.00,CLR,,0.00,WeatherDisplay:10.37,2013-02-16 19:00:00,
2013-02-16 14:05:00,44.2,42.6,29.83,SSE,164,2.0,5.0,94,0.00,CLR,,0.00,WeatherDisplay:10.37,2013-02-16 19:05:00,
2013-02-16 14:10:00,43.9,42.2,29.84,East,99,2.0,4.0,94,0.01,RA,,0.01,WeatherDisplay:10.37,2013-02-16 19:10:00,
2013-02-16 14:15:00,42.3,42.0,29.84,North,0,3.0,8.0,99,0.00,RA,,0.01,WeatherDisplay:10.37,2013-02-16 19:15:00,
2013-02-16 14:20:00,41.5,41.3,29.84,NNW,327,2.0,6.0,99,0.00,,,0.01,WeatherDisplay:10.37,2013-02-16 19:20:00,
2013-02-16 14:25:00,41.0,40.7,29.85,NW,326,3.0,6.0,99,0.01,RA,,0.02,WeatherDisplay:10.37,2013-02-16 19:25:00,
2013-02-16 14:30:00,40.1,39.8,29.85,NNW,331,2.0,8.0,99,0.01,RA,,0.04,WeatherDisplay:10.37,2013-02-16 19:30:00,
2013-02-16 14:35:00,39.9,39.7,29.84,NNW,330,2.0,6.0,99,0.00,RA,,0.04,WeatherDisplay:10.37,2013-02-16 19:35:00,
2013-02-16 14:40:00,39.9,39.7,29.85,NNW,334,2.0,6.0,99,0.00,CLR,,0.04,WeatherDisplay:10.37,2013-02-16 19:40:00,
2013-02-16 14:45:00,38.8,38.6,29.85,NNW,339,1.0,6.0,99,0.01,RA,,0.05,WeatherDisplay:10.37,2013-02-16 19:45:00,
2013-02-16 14:50:00,38.8,38.6,29.84,NW,308,1.0,3.0,99,0.00,RA,,0.05,WeatherDisplay:10.37,2013-02-16 19:50:00,
2013-02-16 14:55:00,38.5,38.2,29.85,NW,316,2.0,6.0,99,0.01,RA,,0.06,WeatherDisplay:10.37,2013-02-16 19:55:00,
2013-02-16 15:00:00,38.5,38.2,29.84,NW,325,2.0,6.0,99,0.00,RA,,0.06,WeatherDisplay:10.37,2013-02-16 20:00:00,
2013-02-16 15:05:00,38.5,38.2,29.84,NW,323,2.0,6.0,99,0.00,CLR,,0.06,WeatherDisplay:10.37,2013-02-16 20:05:00,
2013-02-16 15:10:00,38.5,38.2,29.84,NNW,340,2.0,6.0,99,0.00,CLR,,0.06,WeatherDisplay:10.37,2013-02-16 20:10:00,
2013-02-16 15:15:00,38.5,38.2,29.84,North,359,2.0,6.0,99,0.00,CLR,,0.06,WeatherDisplay:10.37,2013-02-16 20:15:00,
2013-02-16 15:20:00,38.5,38.2,29.84,North,2,1.0,6.0,99,0.01,RA,,0.07,WeatherDisplay:10.37,2013-02-16 20:20:00,
2013-02-16 15:25:00,38.5,38.2,29.83,North,5,1.0,3.0,99,0.00,RA,,0.07,WeatherDisplay:10.37,2013-02-16 20:25:00,
2013-02-16 15:30:00,38.3,38.1,29.84,North,355,1.0,3.0,99,0.01,RA,,0.08,WeatherDisplay:10.37,2013-02-16 20:30:00,
2013-02-16 15:35:00,38.3,38.0,29.85,NW,315,1.0,3.0,99,0.00,RA,,0.08,WeatherDisplay:10.37,2013-02-16 20:35:00,
2013-02-16 15:40:00,38.3,38.0,29.84,NW,310,1.0,5.0,99,0.00,,,0.08,WeatherDisplay:10.37,2013-02-16 20:40:00,
2013-02-16 15:45:00,38.3,38.0,29.85,NW,325,1.0,3.0,99,0.00,CLR,,0.08,WeatherDisplay:10.37,2013-02-16 20:45:00,
2013-02-16 15:50:00,38.3,38.0,29.85,NW,323,1.0,3.0,99,0.00,CLR,,0.08,WeatherDisplay:10.37,2013-02-16 20:50:00,
2013-02-16 15:55:00,38.1,37.9,29.85,NNW,332,1.0,5.0,99,0.01,RA,,0.09,WeatherDisplay:10.37,2013-02-16 20:55:00,
2013-02-16 16:00:00,38.1,37.9,29.85,North,354,1.0,3.0,99,0.00,RA,,0.09,WeatherDisplay:10.37,2013-02-16 21:00:00,
2013-02-16 16:05:00,38.1,37.9,29.85,North,4,1.0,3.0,99,0.00,CLR,,0.09,WeatherDisplay:10.37,2013-02-16 21:05:00,
2013-02-16 16:10:00,38.1,37.9,29.85,North,0,0.0,3.0,99,0.01,RA,,0.11,WeatherDisplay:10.37,2013-02-16 21:10:00,
2013-02-16 16:15:00,38.1,37.9,29.85,NNW,341,1.0,3.0,99,0.00,RA,,0.11,WeatherDisplay:10.37,2013-02-16 21:15:00,
2013-02-16 16:20:00,38.1,37.9,29.84,NW,312,1.0,4.0,99,0.00,,,0.11,WeatherDisplay:10.37,2013-02-16 21:20:00,
2013-02-16 16:25:00,38.1,37.9,29.85,NW,316,1.0,3.0,99,0.00,CLR,,0.11,WeatherDisplay:10.37,2013-02-16 21:25:00,
2013-02-16 16:30:00,38.3,38.0,29.85,NW,323,1.0,2.0,99,0.00,CLR,,0.11,WeatherDisplay:10.37,2013-02-16 21:30:00,
2013-02-16 16:35:00,38.3,38.0,29.84,NW,323,0.0,2.0,99,0.00,CLR,,0.11,WeatherDisplay:10.37,2013-02-16 21:35:00,
2013-02-16 16:40:00,38.3,38.0,29.83,NW,326,0.0,2.0,99,0.00,CLR,,0.11,WeatherDisplay:10.37,2013-02-16 21:40:00,
2013-02-16 16:45:00,38.3,38.0,29.82,NNW,346,1.0,2.0,99,0.00,CLR,,0.11,WeatherDisplay:10.37,2013-02-16 21:45:00,
2013-02-16 16:50:00,38.3,38.0,29.82,North,8,0.0,2.0,99,0.00,CLR,,0.11,WeatherDisplay:10.37,2013-02-16 21:50:00,
2013-02-16 16:55:00,38.3,38.0,29.81,NNE,27,1.0,3.0,99,0.00,CLR,,0.11,WeatherDisplay:10.37,2013-02-16 21:55:00,
2013-02-16 17:00:00,38.3,38.0,29.80,ESE,106,0.0,3.0,99,0.00,CLR,,0.11,WeatherDisplay:10.37,2013-02-16 22:00:00,
2013-02-16 17:05:00,38.3,38.0,29.81,WSW,253,0.0,2.0,99,0.00,CLR,,0.11,WeatherDisplay:10.37,2013-02-16 22:05:00,
2013-02-16 17:10:00,38.3,38.0,29.81,West,277,0.0,2.0,99,0.00,CLR,,0.11,WeatherDisplay:10.37,2013-02-16 22:10:00,
2013-02-16 17:15:00,38.3,38.0,29.82,NNW,333,0.0,2.0,99,0.00,CLR,,0.11,WeatherDisplay:10.37,2013-02-16 22:15:00,
2013-02-16 17:20:00,38.3,38.0,29.83,North,2,0.0,2.0,99,0.00,CLR,,0.11,WeatherDisplay:10.37,2013-02-16 22:20:00,
2013-02-16 17:25:00,38.3,38.0,29.83,North,0,0.0,2.0,99,0.00,CLR,,0.11,WeatherDisplay:10.37,2013-02-16 22:25:00,
2013-02-16 17:35:00,38.3,38.0,29.84,North,0,0.0,2.0,99,0.00,CLR,,0.11,WeatherDisplay:10.37,2013-02-16 22:35:00,
2013-02-16 17:40:00,38.1,37.9,29.84,NW,317,0.0,2.0,99,0.00,CLR,,0.11,WeatherDisplay:10.37,2013-02-16 22:40:00,
2013-02-16 17:45:00,38.1,37.9,29.85,WNW,293,0.0,2.0,99,0.00,CLR,,0.11,WeatherDisplay:10.37,2013-02-16 22:45:00,
2013-02-16 17:50:00,38.3,38.0,29.85,NNW,329,0.0,2.0,99,0.00,CLR,,0.11,WeatherDisplay:10.37,2013-02-16 22:50:00,
2013-02-16 17:55:00,38.3,38.0,29.84,NNW,333,1.0,4.0,99,0.00,CLR,,0.11,WeatherDisplay:10.37,2013-02-16 22:55:00,
2013-02-16 18:00:00,38.3,38.0,29.85,NW,323,0.0,2.0,99,0.00,CLR,,0.11,WeatherDisplay:10.37,2013-02-16 23:00:00,
2013-02-16 18:05:00,38.3,38.0,29.86,NW,317,0.0,2.0,99,0.00,CLR,,0.11,WeatherDisplay:10.37,2013-02-16 23:05:00,
2013-02-16 18:10:00,38.3,38.0,29.86,NW,325,0.0,3.0,99,0.00,CLR,,0.11,WeatherDisplay:10.37,2013-02-16 23:10:00,
2013-02-16 18:15:00,38.4,38.2,29.86,NW,323,1.0,3.0,99,0.00,CLR,,0.11,WeatherDisplay:10.37,2013-02-16 23:15:00,
2013-02-16 18:25:00,38.3,38.0,29.86,NW,323,1.0,3.0,99,0.00,CLR,,0.11,WeatherDisplay:10.37,2013-02-16 23:25:00,
2013-02-16 18:30:00,38.1,37.9,29.87,NW,312,1.0,5.0,99,0.00,CLR,,0.11,WeatherDisplay:10.37,2013-02-16 23:30:00,
2013-02-16 18:35:00,38.1,37.9,29.87,NW,316,1.0,3.0,99,0.00,CLR,,0.11,WeatherDisplay:10.37,2013-02-16 23:35:00,
2013-02-16 18:40:00,38.1,37.9,29.87,NNW,333,0.0,3.0,99,0.00,CLR,,0.11,WeatherDisplay:10.37,2013-02-16 23:40:00,
2013-02-16 18:45:00,38.1,37.9,29.87,NNW,332,0.0,2.0,99,0.00,CLR,,0.11,WeatherDisplay:10.37,2013-02-16 23:45:00,
2013-02-16 18:50:00,38.1,37.9,29.87,West,269,0.0,2.0,99,0.00,CLR,,0.11,WeatherDisplay:10.37,2013-02-16 23:50:00,
2013-02-16 18:55:00,38.1,37.9,29.87,West,272,0.0,2.0,99,0.00,CLR,,0.11,WeatherDisplay:10.37,2013-02-16 23:55:00,
2013-02-16 19:00:00,38.1,37.9,29.87,NW,315,1.0,2.0,99,0.00,CLR,,0.11,WeatherDisplay:10.37,2013-02-17 00:00:00,
2013-02-16 19:05:00,38.1,37.9,29.86,NNW,341,1.0,2.0,99,0.00,CLR,,0.11,WeatherDisplay:10.37,2013-02-17 00:05:00,
2013-02-16 19:15:00,37.9,37.7,29.87,NNW,334,0.0,3.0,99,0.00,CLR,,0.11,WeatherDisplay:10.37,2013-02-17 00:15:00,
2013-02-16 19:20:00,37.8,37.5,29.87,NNW,331,1.0,3.0,99,0.00,CLR,,0.11,WeatherDisplay:10.37,2013-02-17 00:20:00,
2013-02-16 19:25:00,37.6,37.3,29.87,NW,326,0.0,3.0,99,0.00,CLR,,0.11,WeatherDisplay:10.37,2013-02-17 00:25:00,
2013-02-16 19:30:00,37.6,37.3,29.87,NNW,330,1.0,3.0,99,0.00,CLR,,0.11,WeatherDisplay:10.37,2013-02-17 00:30:00,
2013-02-16 19:35:00,37.6,37.3,29.87,NW,326,0.0,2.0,99,0.00,CLR,,0.11,WeatherDisplay:10.37,2013-02-17 00:35:00,
2013-02-16 19:40:00,37.6,37.3,29.87,NW,323,0.0,1.0,99,0.00,CLR,,0.11,WeatherDisplay:10.37,2013-02-17 00:40:00,
2013-02-16 19:45:00,37.6,37.3,29.88,NW,326,0.0,2.0,99,0.00,CLR,,0.11,WeatherDisplay:10.37,2013-02-17 00:45:00,
2013-02-16 19:50:00,37.6,37.3,29.88,NW,324,0.0,2.0,99,0.00,CLR,,0.11,WeatherDisplay:10.37,2013-02-17 00:50:00,
2013-02-16 19:55:00,37.6,37.3,29.88,NW,319,0.0,2.0,99,0.00,CLR,,0.11,WeatherDisplay:10.37,2013-02-17 00:55:00,
2013-02-16 20:00:00,37.6,37.3,29.88,NW,323,0.0,2.0,99,0.00,CLR,,0.11,WeatherDisplay:10.37,2013-02-17 01:00:00,
2013-02-16 20:05:00,37.6,37.3,29.88,NW,323,0.0,1.0,99,0.00,CLR,,0.11,WeatherDisplay:10.37,2013-02-17 01:05:00,
2013-02-16 20:10:00,37.6,37.3,29.89,NW,323,0.0,1.0,99,0.00,CLR,,0.11,WeatherDisplay:10.37,2013-02-17 01:10:00,
2013-02-16 20:15:00,37.8,37.5,29.89,NW,323,0.0,1.0,99,0.00,CLR,,0.11,WeatherDisplay:10.37,2013-02-17 01:15:00,
2013-02-16 20:20:00,37.7,37.4,29.88,NW,323,0.0,1.0,99,0.00,CLR,,0.11,WeatherDisplay:10.37,2013-02-17 01:20:00,
2013-02-16 20:25:00,37.7,37.5,29.88,NW,325,0.0,2.0,99,0.01,RA,,0.12,WeatherDisplay:10.37,2013-02-17 01:25:00,
2013-02-16 20:30:00,37.6,37.3,29.88,NNW,337,1.0,3.0,99,0.00,RA,,0.12,WeatherDisplay:10.37,2013-02-17 01:30:00,
2013-02-16 20:35:00,37.4,37.1,29.88,NNW,342,1.0,3.0,99,0.01,RA,,0.13,WeatherDisplay:10.37,2013-02-17 01:35:00,
2013-02-16 20:40:00,37.2,36.9,29.89,NNW,342,1.0,2.0,99,0.01,RA,,0.14,WeatherDisplay:10.37,2013-02-17 01:40:00,
2013-02-16 20:45:00,36.9,36.6,29.89,NW,325,1.0,2.0,99,0.01,RA,,0.15,WeatherDisplay:10.37,2013-02-17 01:45:00,
2013-02-16 20:50:00,36.4,36.1,29.92,NW,326,1.0,3.0,99,0.01,RA,,0.17,WeatherDisplay:10.37,2013-02-17 01:50:00,
2013-02-16 20:55:00,35.7,35.4,29.91,NW,326,0.0,3.0,99,0.00,RA,,0.17,WeatherDisplay:10.37,2013-02-17 01:55:00,
2013-02-16 21:00:00,34.9,34.6,29.91,North,349,0.0,2.0,99,0.00,CLR,,0.17,WeatherDisplay:10.37,2013-02-17 02:00:00,
2013-02-16 21:10:00,34.2,34.0,29.91,WSW,246,0.0,2.0,99,0.00,CLR,,0.17,WeatherDisplay:10.37,2013-02-17 02:10:00,
2013-02-16 21:15:00,34.1,33.8,29.91,NNE,29,0.0,2.0,99,0.00,CLR,,0.17,WeatherDisplay:10.37,2013-02-17 02:15:00,
2013-02-16 21:20:00,34.0,33.7,29.90,NNE,19,0.0,2.0,99,0.00,CLR,,0.17,WeatherDisplay:10.37,2013-02-17 02:20:00,
2013-02-16 21:25:00,33.8,33.5,29.90,North,358,0.0,2.0,99,0.00,CLR,,0.17,WeatherDisplay:10.37,2013-02-17 02:25:00,
2013-02-16 21:30:00,33.8,33.5,29.91,North,352,0.0,2.0,99,0.00,CLR,,0.17,WeatherDisplay:10.37,2013-02-17 02:30:00,
2013-02-16 21:40:00,33.9,33.6,29.91,WSW,252,0.0,2.0,99,0.00,CLR,,0.17,WeatherDisplay:10.37,2013-02-17 02:40:00,
2013-02-16 21:45:00,33.8,33.6,29.91,NW,305,1.0,2.0,99,0.00,CLR,,0.17,WeatherDisplay:10.37,2013-02-17 02:45:00,
2013-02-16 21:50:00,33.8,33.5,29.92,NNW,337,1.0,2.0,99,0.00,CLR,,0.17,WeatherDisplay:10.37,2013-02-17 02:50:00,
2013-02-16 21:55:00,33.6,33.4,29.93,NNW,336,0.0,2.0,99,0.00,CLR,,0.17,WeatherDisplay:10.37,2013-02-17 02:55:00,
2013-02-16 22:00:00,33.4,33.2,29.93,NNW,329,1.0,3.0,99,0.00,CLR,,0.17,WeatherDisplay:10.37,2013-02-17 03:00:00,
2013-02-16 22:05:00,33.4,33.2,29.94,NNW,329,1.0,2.0,99,0.00,CLR,,0.17,WeatherDisplay:10.37,2013-02-17 03:05:00,
2013-02-16 22:10:00,33.1,32.8,29.94,NW,323,0.0,2.0,99,0.00,CLR,,0.17,WeatherDisplay:10.37,2013-02-17 03:10:00,
2013-02-16 22:15:00,32.9,32.7,29.95,NW,323,0.0,0.0,99,0.00,CLR,,0.17,WeatherDisplay:10.37,2013-02-17 03:15:00,
2013-02-16 22:20:00,32.9,32.7,29.95,NW,323,0.0,0.0,99,0.00,CLR,,0.17,WeatherDisplay:10.37,2013-02-17 03:20:00,
2013-02-16 22:25:00,32.9,32.7,29.95,NW,323,0.0,0.0,99,0.00,CLR,,0.17,WeatherDisplay:10.37,2013-02-17 03:25:00,
2013-02-16 22:30:00,32.9,32.7,29.95,NW,323,0.0,0.0,99,0.00,CLR,,0.17,WeatherDisplay:10.37,2013-02-17 03:30:00,
2013-02-16 22:35:00,32.9,32.7,29.96,NW,323,0.0,0.0,99,0.00,CLR,,0.17,WeatherDisplay:10.37,2013-02-17 03:35:00,
2013-02-16 22:40:00,32.9,32.7,29.96,NW,323,0.0,0.0,99,0.00,CLR,,0.17,WeatherDisplay:10.37,2013-02-17 03:40:00,
2013-02-16 22:45:00,32.9,32.7,29.96,NW,323,0.0,0.0,99,0.00,CLR,,0.17,WeatherDisplay:10.37,2013-02-17 03:45:00,
2013-02-16 22:50:00,32.9,32.7,29.96,NW,323,0.0,0.0,99,0.00,CLR,,0.17,WeatherDisplay:10.37,2013-02-17 03:50:00,
2013-02-16 22:55:00,32.9,32.7,29.96,NW,323,0.0,0.0,99,0.00,CLR,,0.17,WeatherDisplay:10.37,2013-02-17 03:55:00,
2013-02-16 23:00:00,32.9,32.6,29.97,NW,323,0.0,0.0,99,0.00,CLR,,0.17,WeatherDisplay:10.37,2013-02-17 04:00:00,
2013-02-16 23:05:00,32.9,32.6,29.97,NW,323,0.0,0.0,99,0.00,CLR,,0.17,WeatherDisplay:10.37,2013-02-17 04:05:00,
2013-02-16 23:10:00,32.7,32.5,29.97,NW,323,0.0,0.0,99,0.00,CLR,,0.17,WeatherDisplay:10.37,2013-02-17 04:10:00,
2013-02-16 23:15:00,32.7,32.5,29.97,NW,323,0.0,0.0,99,0.00,CLR,,0.17,WeatherDisplay:10.37,2013-02-17 04:15:00,
2013-02-16 23:20:00,32.7,32.5,29.97,NW,323,0.0,0.0,99,0.00,CLR,,0.17,WeatherDisplay:10.37,2013-02-17 04:20:00,
2013-02-16 23:25:00,32.7,32.5,29.97,NW,323,0.0,0.0,99,0.00,CLR,,0.17,WeatherDisplay:10.37,2013-02-17 04:25:00,
2013-02-16 23:30:00,32.7,32.5,29.97,NW,323,0.0,0.0,99,0.00,CLR,,0.17,WeatherDisplay:10.37,2013-02-17 04:30:00,
2013-02-16 23:35:00,32.7,32.5,29.97,NW,323,0.0,0.0,99,0.00,CLR,,0.17,WeatherDisplay:10.37,2013-02-17 04:35:00,
2013-02-16 23:40:00,32.7,32.5,29.97,NW,323,0.0,0.0,99,0.00,CLR,,0.17,WeatherDisplay:10.37,2013-02-17 04:40:00,
2013-02-16 23:45:00,32.9,32.6,29.98,NW,323,0.0,0.0,99,0.00,CLR,,0.17,WeatherDisplay:10.37,2013-02-17 04:45:00,
2013-02-16 23:55:00,32.9,32.7,29.98,NW,323,0.0,0.0,99,0.00,CLR,,0.17,WeatherDisplay:10.37,2013-02-17 04:55:00,